Location: Bezawada
(16.5136°N, 80.6297°E)
Time: 21:52:46
(UTC+00:00)

Atlas 2A Centaur Rocket - Pass Details

Date: 27 February 2020
Orbit: 285 x 19436 km, 27.1° (Epoch: 05 April)

Event Time Altitude Azimuth Distance (km) Brightness Sun altitude
Rises 12:47:02 0° 285° (WNW) 7,238 9.0 -1.6°
Reaches altitude 10° 12:54:50 10° 295° (WNW) 3,952 7.2 -3.5°
Maximum altitude 13:01:18 25° 349° (N) 1,376 3.9 -5.0°
Drops below altitude 10° 13:03:57 10° 50° (NE) 1,531 3.6 -5.6°
Enters shadow 13:04:38 - 59° (ENE) 1,762 3.8 -5.8°
